Back to catalog

OPS 4682 DEB

AlivePO
NORAD 51503·DEBRIS·🇺🇸 United States

Launched Apr 3, 1965 from Vandenberg Space Force Base

Loading…

Next Passes (next 24 hours)

TLE

AgingSource: Space-Track

Epoch: Sep 5, 2026, 01:37 UTC

1 51503U 65027GP  26248.06737080 -.00000119  00000-0 -45077-3 0  9996
2 51503  90.2601  10.7037 0040978  24.7093 335.5977 12.94803167533950

Track OPS 4682 DEB in real time with AllMySat

Download on the App Store